Temperature
4 3 2 1 -0 -1 -2 -3 -3 -4 -4 -4 -4 -5 -5 -5 -5 -5 -6 -6 -6 -6 -6 -6 -6 -6 -6 -6 -6 -6 -5 -5 -4 -2 1 4 5 6 8 10 10 10 11
4 3 2 0 -1 -2 -3 -4 -4 -5 -5 -5 -6 -6 -6 -6 -6 -6 -6 -7 -7 -7 -7 -7 -7 -7 -7 -6 -6 -6 -6 -6 -5 -5 -4 -1 2 5 7 8 9 10 10
4 3 1 -0 -2 -3 -4 -4 -5 -5 -6 -6 -6 -6 -6 -6 -6 -6 -7 -7 -8 -8 -8 -8 -8 -8 -8 -7 -7 -6 -6 -6 -5 -5 -4 -3 -1 -1 6 7 8 9 10
3 2 0 -1 -2 -3 -4 -5 -5 -6 -6 -6 -7 -7 -8 -8 -8 -8 -8 -8 -8 -8 -9 -9 -9 -9 -8 -8 -8 -7 -7 -6 -6 -5 -5 -4 -4 -3 -1 5 7 7 8
3 1 -0 -1 -3 -4 -4 -5 -6 -6 -7 -7 -7 -8 -8 -9 -8 -8 -8 -8 -8 -9 -9 -9 -10 -9 -9 -9 -8 -8 -7 -7 -6 -5 -5 -5 -4 -4 -3 -2 4 6 7
2 1 -1 -2 -3 -4 -5 -5 -6 -7 -7 -7 -8 -8 -9 -9 -9 -9 -9 -9 -9 -9 -10 -10 -10 -10 -10 -9 -9 -8 -8 -7 -6 -6 -5 -5 -5 -4 -3 -2 -1 1 5
1 -0 -1 -3 -3 -4 -5 -6 -6 -6 -7 -8 -8 -9 -9 -10 -10 -10 -10 -10 -10 -10 -11 -11 -11 -11 -10 -10 -9 -9 -8 -7 -7 -6 -6 -6 -5 -4 -4 -3 -2 -1 2
1 -1 -2 -3 -4 -5 -5 -5 -6 -7 -7 -8 -9 -9 -10 -10 -11 -11 -11 -11 -11 -11 -11 -12 -11 -11 -11 -10 -10 -9 -8 -8 -7 -7 -6 -6 -6 -5 -4 -3 -3 -2 -1
-0 -1 -2 -3 -4 -5 -5 -6 -7 -7 -8 -8 -9 -10 -10 -11 -11 -11 -11 -12 -12 -12 -12 -12 -12 -12 -11 -11 -10 -9 -9 -8 -7 -7 -7 -6 -6 -5 -4 -3 -3 -2 -1
-0 -2 -3 -3 -4 -5 -6 -6 -7 -8 -8 -9 -10 -10 -11 -11 -11 -12 -12 -12 -12 -12 -12 -12 -12 -12 -12 -11 -11 -10 -9 -8 -7 -7 -7 -7 -6 -5 -4 -3 -2 -2 -2
-1 -2 -3 -4 -5 -5 -6 -7 -8 -8 -9 -9 -10 -11 -11 -12 -12 -12 -12 -12 -13 -13 -13 -13 -13 -13 -12 -11 -11 -10 -9 -8 -8 -7 -7 -7 -6 -5 -4 -3 -2 -2 -1
-1 -2 -3 -4 -5 -6 -7 -7 -8 -9 -9 -10 -10 -11 -11 -12 -12 -13 -13 -13 -13 -13 -13 -13 -13 -13 -12 -12 -11 -10 -9 -8 -8 -8 -7 -7 -6 -5 -4 -3 -2 -1 -1
-2 -3 -4 -5 -5 -6 -7 -8 -8 -9 -9 -10 -10 -11 -12 -12 -13 -13 -13 -13 -13 -13 -13 -13 -14 -13 -13 -12 -11 -10 -9 -8 -8 -8 -7 -7 -6 -5 -4 -3 -2 -1 -0
-3 -4 -4 -5 -6 -7 -7 -8 -9 -9 -10 -10 -11 -11 -12 -12 -13 -13 -14 -14 -14 -14 -14 -14 -13 -13 -13 -12 -11 -9 -8 -8 -8 -8 -7 -7 -7 -6 -4 -3 -2 -1 -1
-3 -4 -5 -5 -6 -7 -8 -8 -9 -9 -10 -10 -11 -12 -12 -13 -13 -13 -14 -14 -14 -14 -14 -14 -13 -13 -13 -12 -10 -9 -8 -8 -8 -8 -8 -8 -7 -7 -5 -4 -3 -2 -1
-4 -4 -5 -5 -6 -7 -8 -8 -9 -9 -10 -11 -11 -12 -12 -13 -13 -13 -14 -14 -14 -14 -14 -14 -13 -13 -13 -11 -9 -8 -8 -8 -8 -8 -9 -8 -8 -8 -7 -6 -5 -4 -3
-4 -4 -5 -6 -7 -8 -8 -9 -9 -9 -10 -11 -12 -12 -12 -13 -13 -13 -14 -14 -14 -14 -14 -14 -13 -13 -12 -11 -9 -9 -9 -9 -9 -9 -9 -9 -9 -8 -8 -7 -6 -5 -5
-4 -5 -5 -6 -7 -8 -8 -8 -9 -10 -11 -11 -12 -12 -12 -13 -13 -13 -13 -14 -14 -14 -13 -13 -13 -13 -12 -11 -9 -9 -9 -9 -9 -9 -9 -9 -9 -9 -9 -8 -7 -7 -6
-4 -5 -5 -6 -7 -8 -8 -8 -9 -10 -11 -11 -11 -12 -13 -13 -13 -13 -13 -13 -13 -13 -13 -13 -13 -13 -12 -11 -10 -10 -10 -10 -10 -10 -9 -10 -10 -9 -10 -9 -9 -7 -7
-4 -5 -6 -6 -7 -8 -8 -8 -9 -10 -11 -11 -11 -12 -13 -13 -13 -13 -13 -13 -13 -13 -13 -13 -13 -13 -12 -11 -11 -11 -11 -11 -11 -10 -10 -10 -10 -10 -10 -10 -10 -9 -8
-4 -5 -6 -6 -7 -8 -8 -8 -9 -10 -11 -11 -11 -12 -12 -13 -13 -13 -13 -13 -13 -13 -13 -13 -13 -13 -12 -12 -11 -11 -11 -12 -12 -12 -11 -11 -11 -11 -11 -11 -11 -11 -9
-4 -5 -6 -6 -7 -8 -8 -8 -9 -10 -10 -11 -11 -12 -12 -13 -13 -13 -13 -13 -13 -13 -13 -13 -13 -13 -13 -12 -12 -12 -12 -12 -12 -12 -12 -12 -12 -11 -11 -11 -11 -11 -10
-5 -5 -6 -6 -7 -8 -8 -9 -9 -9 -10 -10 -11 -11 -12 -12 -13 -13 -13 -13 -13 -13 -14 -13 -13 -13 -13 -13 -13 -13 -13 -13 -13 -13 -13 -13 -12 -12 -11 -12 -11 -11 -11
-5 -5 -6 -6 -7 -7 -8 -8 -9 -9 -9 -10 -11 -11 -12 -12 -13 -13 -13 -13 -13 -13 -13 -14 -13 -13 -13 -13 -13 -14 -14 -14 -14 -13 -13 -13 -13 -13 -13 -12 -12 -12 -12
-5 -6 -6 -6 -7 -7 -8 -8 -8 -8 -9 -10 -11 -11 -12 -13 -13 -13 -13 -13 -13 -13 -13 -14 -13 -13 -13 -13 -13 -13 -13 -14 -14 -14 -14 -14 -13 -14 -14 -14 -14 -13 -13
-5 -5 -6 -6 -7 -7 -7 -8 -8 -8 -9 -10 -11 -11 -12 -13 -13 -13 -13 -13 -13 -13 -14 -14 -13 -13 -13 -13 -13 -13 -13 -13 -14 -14 -14 -15 -15 -15 -15 -15 -15 -15 -14
Wind_Speed
8 9 9 10 10 11 12 13 13 13 14 11 12 12 12 11 13 18 22 22 23 25 22 17 18 18 12 14 15 14 15 12 12 11 13 12 13 15 13 13 13 11 8
9 9 10 9 9 10 12 12 13 13 13 11 10 9 10 9 14 19 21 21 23 24 21 18 15 15 12 14 15 15 12 12 11 11 11 7 8 6 10 9 11 12 9
9 9 10 9 9 10 11 13 11 11 14 17 14 12 7 9 9 10 8 19 23 22 21 20 18 15 10 11 14 14 14 13 11 9 6 6 6 12 11 12 10 7 7
8 9 10 9 9 9 9 10 11 9 12 15 11 13 12 12 13 11 10 19 23 22 21 20 20 16 12 12 13 14 13 13 11 9 7 8 9 7 8 12 12 14 12
9 9 9 8 8 8 8 9 10 9 11 12 10 10 10 9 10 11 12 10 17 20 21 22 20 17 13 11 13 15 14 12 12 10 9 9 9 11 9 13 16 13 11
9 8 8 8 8 8 8 8 10 10 9 9 9 10 11 12 13 13 12 12 9 13 19 22 21 19 14 12 13 14 15 13 14 12 9 10 9 9 9 11 15 16 14
8 8 9 9 9 9 9 9 10 11 11 10 10 11 11 11 11 12 12 13 12 11 10 20 18 17 17 18 16 15 15 15 15 13 10 10 11 12 12 13 14 17 15
8 8 9 8 8 9 9 10 11 11 11 11 11 9 9 8 8 11 11 11 11 10 15 20 20 20 20 20 16 13 15 14 14 15 13 11 11 12 13 13 13 14 14
8 8 8 8 8 9 9 10 11 11 11 11 11 10 9 10 10 10 9 7 10 16 19 20 18 19 20 19 15 13 16 15 14 14 13 11 12 12 13 14 14 14 13
7 7 7 7 7 8 8 9 9 10 10 11 11 14 10 9 10 9 11 10 13 18 16 15 16 16 17 17 15 16 16 18 16 13 13 13 12 12 13 14 14 15 15
7 7 7 8 7 8 8 8 9 10 10 11 11 11 10 9 11 9 10 11 13 16 13 14 15 17 17 15 16 17 19 18 16 13 13 15 15 13 12 12 13 14 14
8 8 8 8 8 8 8 9 9 9 10 10 11 11 11 10 11 12 12 16 14 14 15 16 16 18 18 17 17 18 21 18 14 13 14 15 13 15 12 10 11 11 12
8 8 8 8 9 9 9 9 9 10 10 10 11 11 11 12 12 13 13 17 14 12 14 13 15 17 18 18 17 16 20 16 12 12 14 15 15 14 12 11 9 8 8
8 8 8 8 9 9 9 10 10 10 11 11 11 11 11 12 13 13 14 15 14 12 11 11 14 16 17 18 16 17 18 12 10 10 13 14 14 15 14 10 7 5 4
8 9 9 9 9 10 10 10 10 9 10 10 10 10 10 11 12 14 14 13 13 15 12 13 15 16 16 15 18 18 11 8 8 10 12 14 18 21 18 13 12 9 4
8 9 9 10 10 11 11 10 10 10 10 10 10 10 10 11 12 14 14 14 13 12 12 14 16 17 17 26 30 16 8 8 9 10 11 14 16 20 24 25 25 23 15
7 8 9 9 10 10 10 10 11 11 11 10 9 10 10 12 13 15 14 13 11 11 12 13 14 15 19 29 27 19 12 11 11 10 11 13 16 19 16 21 25 24 27
7 7 8 8 9 8 9 10 11 11 11 10 10 10 11 11 11 11 12 11 9 10 10 11 13 15 20 29 26 22 14 11 12 12 12 13 15 19 19 17 17 17 18
5 5 6 8 9 9 10 10 11 11 11 11 11 11 11 11 11 11 11 10 9 9 9 10 12 14 18 27 26 22 11 11 13 14 16 16 14 25 26 18 17 17 17
4 5 7 7 8 9 9 10 12 11 12 13 13 12 11 11 11 11 10 9 9 10 11 11 11 13 13 24 26 23 11 12 11 11 14 22 23 26 26 17 16 17 16
6 7 7 7 8 9 9 10 11 11 12 12 13 12 11 11 11 10 9 10 10 11 11 12 11 11 15 21 26 24 11 11 10 10 10 13 25 27 27 22 16 20 17
6 7 7 8 8 8 8 10 11 11 12 12 13 12 11 12 13 10 9 9 9 9 9 9 10 9 12 18 21 25 21 16 10 9 8 12 23 25 26 21 23 26 20
6 6 7 8 8 8 8 10 11 11 12 12 12 11 12 10 10 9 8 8 7 7 8 9 9 9 8 11 22 23 22 21 11 9 17 19 22 21 18 24 26 20 14
5 6 7 8 8 9 9 9 10 11 12 13 11 10 11 11 9 9 8 7 8 7 7 8 9 8 7 6 6 8 10 14 12 10 15 20 21 18 19 19 16 14 13
4 5 6 7 8 9 9 9 9 11 11 12 10 10 11 10 9 10 9 10 7 10 8 5 6 7 6 11 17 12 8 7 10 9 8 9 11 12 12 11 12 12 12
4 5 7 8 8 9 9 9 9 11 11 12 10 8 8 9 9 8 9 17 17 19 18 15 12 9 13 15 17 17 18 19 19 12 7 9 10 11 11 11 10 10 11
Wind_Direction
36 34 33 39 24 14 5 357 359 354 352 352 346 344 342 337 336 346 346 345 347 343 339 345 340 336 332 331 331 332 330 331 331 328 323 302 280 262 259 260 262 259 251
22 21 28 34 20 15 7 355 359 352 352 351 343 340 333 329 335 341 338 342 344 340 340 343 338 333 329 328 328 328 328 328 334 327 324 318 308 338 298 275 254 245 239
16 13 22 24 16 17 11 355 352 349 349 349 344 341 330 333 337 337 333 340 340 336 338 339 337 331 328 324 325 324 327 323 320 320 320 319 322 328 308 319 318 308 262
16 21 22 15 14 19 11 353 345 345 347 348 343 343 342 338 336 334 331 336 336 333 337 338 336 331 328 324 324 325 320 317 314 313 298 288 296 297 308 311 314 325 314
25 29 19 8 15 20 8 351 342 342 344 346 340 339 335 332 330 330 331 332 331 333 336 337 334 329 326 324 323 321 315 312 306 305 305 296 284 271 277 290 300 308 307
27 27 12 5 15 14 1 348 343 343 344 343 337 338 334 333 333 334 333 331 329 332 335 334 332 326 326 326 322 318 314 308 303 300 300 298 287 276 271 274 287 297 302
27 18 7 8 10 1 355 350 347 343 344 342 340 335 333 333 331 333 330 329 331 331 327 332 328 326 327 325 323 320 315 309 303 300 296 293 287 279 270 269 275 283 291
31 20 12 10 2 355 353 350 346 342 342 341 338 330 332 332 328 327 325 326 328 324 325 329 327 329 328 325 322 320 316 313 309 302 297 295 288 278 267 260 262 271 279
30 17 11 7 360 355 353 347 343 340 339 338 335 331 332 329 326 324 322 324 325 326 328 329 331 330 327 324 323 320 316 316 311 303 299 298 293 282 269 257 247 250 261
24 16 11 4 358 354 348 344 339 336 334 336 335 334 327 326 328 326 327 327 326 326 327 331 332 329 326 324 325 321 315 315 310 306 306 305 299 290 274 255 243 238 244
26 17 7 1 353 350 346 340 337 335 335 333 331 327 326 328 331 328 327 326 323 327 330 332 331 329 326 325 325 322 318 315 311 312 313 310 306 299 286 262 243 236 234
30 18 5 355 349 348 344 341 337 338 335 331 329 327 329 330 330 329 329 327 322 327 331 331 330 328 326 322 322 321 320 316 315 320 320 319 318 311 302 283 254 239 233
22 11 360 352 348 345 343 341 341 339 332 332 329 328 329 329 330 329 328 324 321 324 328 329 329 325 321 318 315 314 314 312 311 321 326 328 328 325 315 300 280 257 246
16 4 354 349 346 343 342 338 340 331 331 331 325 325 326 328 328 327 324 321 323 324 323 325 324 320 317 312 309 311 311 309 310 329 335 335 341 339 334 331 324 299 274
9 1 351 345 342 341 337 335 329 325 327 320 318 319 322 323 324 324 322 323 326 325 321 323 320 317 318 315 316 316 320 324 336 348 351 350 1 4 5 11 11 7 354
3 355 347 343 340 335 331 328 324 326 319 313 313 317 321 324 324 323 326 327 324 321 323 322 320 320 326 324 330 349 6 7 7 10 7 2 8 15 12 20 25 27 27
359 350 342 338 330 323 325 327 330 322 317 316 318 321 321 322 323 329 328 325 322 324 323 321 322 323 324 334 347 25 32 21 17 21 22 18 14 24 16 17 23 23 26
357 341 332 324 316 320 328 328 323 319 320 325 328 326 323 319 321 325 325 323 321 320 316 318 325 330 334 344 2 26 24 23 24 26 27 26 19 28 26 19 22 22 21
359 334 325 318 324 330 328 326 324 323 329 334 333 331 326 325 328 329 327 327 325 322 319 322 328 334 337 351 14 30 18 23 25 22 23 27 25 30 30 23 22 22 18
356 338 332 331 330 322 323 328 328 331 337 336 335 331 329 331 330 329 327 326 328 331 332 335 334 336 340 357 17 36 27 26 23 19 15 22 29 30 34 28 23 26 17
359 353 343 332 321 318 330 330 330 336 335 333 331 332 335 335 333 331 330 332 338 340 341 343 342 344 356 1 12 30 36 29 23 20 13 17 27 29 34 35 31 31 26
360 354 341 326 320 329 337 331 332 331 333 334 334 337 339 339 342 336 337 338 343 346 348 349 351 355 359 6 11 18 26 35 23 11 6 19 28 28 30 34 32 31 29
359 348 334 323 326 336 341 333 328 333 337 337 336 338 338 335 337 340 341 341 343 350 358 356 356 359 3 7 21 20 20 22 23 11 19 24 28 28 27 29 31 29 27
356 343 331 328 331 337 337 326 328 339 339 335 334 341 340 339 341 345 345 346 345 357 6 358 352 353 358 357 12 13 15 18 22 18 19 24 26 29 27 28 27 25 28
347 339 331 327 327 330 329 330 345 344 339 333 335 345 346 339 340 346 350 354 354 11 12 348 348 360 3 22 28 26 16 19 36 28 19 19 20 22 21 23 25 24 24
349 341 333 328 323 326 328 339 350 345 340 338 343 348 346 343 343 344 349 0 5 11 13 12 15 8 18 24 22 19 21 30 33 31 23 25 22 20 18 19 20 23 25
Height
1613 1610 1607 1602 1598 1593 1587 1582 1576 1570 1564 1558 1552 1546 1541 1537 1534 1530 1525 1521 1516 1511 1508 1503 1499 1495 1491 1487 1483 1478 1473 1468 1464 1459 1452 1449 1450 1450 1450 1452 1455 1458 1461
1612 1610 1606 1601 1596 1591 1586 1580 1575 1570 1564 1558 1552 1547 1542 1537 1533 1528 1524 1519 1515 1510 1506 1502 1497 1493 1489 1485 1481 1477 1472 1468 1465 1461 1455 1448 1445 1444 1444 1446 1448 1451 1455
1611 1608 1604 1600 1595 1590 1584 1579 1574 1569 1563 1557 1551 1545 1540 1535 1529 1524 1520 1516 1512 1508 1504 1500 1495 1491 1487 1482 1478 1475 1471 1466 1464 1462 1460 1456 1449 1442 1438 1438 1440 1444 1448
1609 1606 1602 1598 1594 1589 1583 1578 1573 1568 1562 1556 1550 1544 1538 1533 1528 1524 1518 1514 1509 1505 1501 1496 1492 1488 1484 1479 1475 1472 1468 1464 1461 1459 1458 1457 1453 1450 1439 1431 1432 1433 1437
1607 1604 1600 1597 1593 1588 1582 1577 1571 1566 1561 1555 1549 1543 1538 1533 1527 1522 1516 1511 1505 1501 1497 1492 1488 1484 1480 1476 1472 1468 1464 1461 1458 1455 1453 1451 1450 1448 1445 1436 1426 1426 1428
1605 1602 1599 1596 1591 1586 1580 1575 1570 1564 1559 1553 1548 1542 1536 1531 1525 1519 1513 1508 1503 1498 1493 1489 1484 1480 1476 1471 1467 1463 1460 1457 1454 1451 1448 1446 1444 1442 1441 1437 1431 1424 1421
1603 1601 1597 1593 1588 1583 1578 1573 1568 1562 1556 1551 1546 1540 1535 1529 1524 1518 1512 1506 1500 1495 1490 1485 1480 1476 1471 1467 1463 1458 1455 1451 1448 1446 1443 1440 1438 1436 1435 1434 1430 1425 1418
1602 1599 1596 1591 1586 1582 1577 1571 1566 1560 1554 1549 1543 1538 1533 1528 1522 1517 1511 1506 1500 1494 1488 1483 1478 1472 1467 1462 1458 1454 1450 1446 1443 1440 1437 1433 1430 1428 1428 1428 1427 1424 1418
1600 1598 1594 1590 1585 1580 1575 1570 1564 1558 1553 1547 1541 1536 1531 1526 1520 1515 1509 1504 1498 1492 1486 1480 1474 1469 1463 1458 1454 1449 1445 1441 1437 1434 1431 1427 1423 1420 1419 1419 1420 1421 1418
1598 1596 1592 1588 1584 1579 1574 1568 1563 1557 1551 1545 1539 1534 1529 1523 1518 1512 1506 1501 1495 1489 1483 1477 1471 1465 1460 1455 1450 1445 1440 1436 1432 1429 1425 1420 1416 1412 1410 1410 1410 1411 1412
1597 1594 1591 1587 1582 1578 1572 1567 1561 1555 1549 1543 1537 1531 1526 1521 1515 1509 1503 1497 1492 1486 1481 1474 1468 1462 1456 1451 1446 1441 1436 1432 1428 1424 1419 1414 1409 1405 1402 1401 1400 1401 1403
1596 1593 1589 1585 1580 1575 1570 1565 1559 1553 1547 1541 1535 1529 1523 1518 1512 1506 1500 1494 1489 1484 1478 1472 1465 1459 1453 1448 1442 1437 1432 1428 1425 1420 1415 1410 1404 1399 1395 1393 1392 1392 1393
1594 1591 1588 1583 1578 1573 1568 1562 1557 1551 1544 1539 1532 1526 1520 1514 1508 1502 1496 1491 1486 1481 1476 1469 1463 1456 1450 1444 1439 1434 1429 1426 1422 1417 1412 1407 1401 1395 1390 1387 1385 1384 1386
1593 1590 1586 1582 1577 1571 1566 1560 1554 1548 1542 1536 1530 1524 1518 1512 1506 1500 1494 1488 1484 1478 1473 1467 1461 1454 1447 1442 1436 1431 1426 1423 1420 1416 1411 1405 1400 1393 1387 1383 1380 1379 1380
1592 1588 1584 1580 1575 1569 1564 1558 1552 1546 1540 1534 1528 1522 1516 1510 1504 1497 1491 1486 1481 1476 1471 1465 1458 1452 1445 1439 1433 1428 1424 1421 1418 1414 1410 1405 1400 1393 1387 1382 1378 1376 1376
1590 1587 1583 1578 1573 1567 1561 1556 1550 1545 1538 1532 1526 1521 1514 1508 1502 1496 1490 1485 1479 1474 1469 1463 1456 1450 1444 1437 1430 1425 1422 1420 1417 1414 1410 1405 1399 1393 1387 1382 1377 1375 1373
1589 1586 1581 1577 1571 1566 1561 1555 1549 1543 1536 1531 1525 1519 1513 1507 1501 1495 1490 1484 1478 1473 1467 1461 1456 1449 1442 1436 1430 1425 1423 1421 1418 1415 1411 1406 1401 1395 1388 1383 1378 1375 1374
1587 1584 1580 1575 1570 1565 1560 1555 1548 1542 1536 1530 1523 1517 1511 1506 1500 1495 1489 1484 1478 1473 1467 1462 1456 1450 1443 1438 1432 1428 1425 1423 1420 1417 1414 1409 1404 1399 1393 1387 1382 1378 1375
1585 1582 1578 1574 1569 1564 1559 1553 1547 1541 1535 1528 1521 1516 1510 1505 1500 1494 1489 1484 1479 1473 1468 1463 1457 1452 1446 1441 1436 1431 1428 1426 1423 1420 1417 1413 1408 1404 1397 1391 1386 1382 1379
1584 1581 1577 1573 1568 1563 1558 1552 1546 1540 1534 1527 1521 1516 1511 1506 1500 1495 1490 1485 1480 1474 1469 1464 1459 1454 1450 1445 1440 1435 1432 1429 1427 1424 1420 1418 1414 1409 1403 1397 1392 1387 1383
1583 1580 1576 1572 1567 1562 1558 1552 1546 1540 1534 1528 1522 1516 1511 1506 1501 1496 1491 1486 1481 1475 1470 1465 1461 1457 1453 1449 1445 1441 1437 1434 1431 1428 1425 1422 1419 1414 1409 1404 1399 1396 1391
1582 1579 1575 1571 1567 1562 1557 1552 1546 1541 1534 1528 1522 1516 1511 1506 1502 1496 1491 1486 1481 1476 1471 1467 1463 1460 1456 1453 1449 1446 1442 1438 1435 1433 1430 1427 1423 1418 1414 1410 1407 1402 1397
1581 1578 1575 1571 1567 1563 1558 1552 1547 1541 1534 1528 1522 1517 1511 1507 1502 1497 1492 1487 1482 1478 1474 1469 1466 1463 1460 1456 1453 1449 1445 1442 1439 1437 1435 1431 1427 1422 1418 1415 1411 1407 1403
1580 1577 1574 1570 1567 1563 1558 1553 1548 1542 1535 1528 1523 1518 1512 1507 1503 1499 1494 1489 1484 1480 1476 1472 1469 1466 1463 1460 1456 1452 1449 1445 1442 1439 1436 1433 1430 1426 1423 1419 1416 1413 1411
1579 1576 1573 1570 1566 1562 1558 1553 1548 1542 1535 1529 1524 1519 1514 1509 1505 1500 1496 1491 1487 1483 1479 1475 1472 1469 1466 1464 1461 1457 1454 1450 1447 1443 1440 1436 1433 1430 1427 1424 1422 1419 1416
1577 1575 1572 1569 1566 1562 1558 1553 1548 1542 1536 1530 1525 1520 1515 1510 1507 1502 1497 1493 1490 1485 1481 1478 1475 1472 1470 1467 1464 1461 1458 1455 1452 1447 1444 1441 1438 1436 1433 1430 1428 1425 1422